Theta_e
310 310 310 311 311 311 311 311 310 310 310 310 310 311 311 312 312 309 303 311 313 319 313 307 314 311 307 306 311 312 300 297 298 299 302 308 306 310 311 308 309 310 310 315 324
310 310 310 310 310 310 310 310 310 310 310 310 310 311 311 312 308 305 316 318 317 313 305 302 306 308 303 303 303 303 300 299 304 305 304 306 307 307 307 306 307 308 313 315 319
310 310 310 310 310 310 310 310 310 309 309 309 309 311 312 312 304 306 318 315 314 313 305 304 306 308 303 305 303 301 298 303 304 306 306 305 305 308 305 304 308 308 310 313 315
309 309 310 310 310 310 310 310 309 309 309 309 310 311 312 309 294 310 321 318 316 309 308 308 303 301 299 299 304 299 302 303 303 306 305 303 306 304 305 306 310 310 312 312 312
309 310 310 310 310 309 309 309 308 308 308 309 310 311 309 302 303 313 319 315 315 311 308 307 302 300 296 298 300 299 301 303 305 304 305 305 302 302 303 308 310 310 311 310 311
309 309 308 309 308 307 307 307 308 308 308 309 310 310 305 295 309 311 308 308 309 310 308 307 305 305 301 300 299 301 301 301 302 302 303 300 301 302 303 306 306 307 308 309 311
308 307 307 306 307 307 307 307 307 308 308 310 311 309 303 300 310 311 309 305 306 307 306 309 308 305 305 300 304 302 297 300 300 301 300 302 297 298 304 306 305 306 308 308 310
307 306 306 306 306 306 306 306 307 308 310 313 313 310 299 310 312 308 309 307 309 307 306 308 309 305 303 305 301 297 297 290 297 299 300 300 293 300 305 305 304 306 307 308 310
306 306 306 306 306 307 307 307 307 309 313 313 311 308 299 311 306 310 312 306 307 306 306 306 304 300 301 296 293 294 289 291 294 300 299 299 295 302 306 306 305 306 307 308 310
305 305 305 305 306 306 306 307 309 311 311 313 310 303 306 302 307 309 312 310 305 305 303 301 298 295 295 293 285 289 290 292 291 296 298 296 296 301 303 303 303 304 307 308 309
305 305 304 304 305 306 305 307 304 304 308 304 302 302 300 304 307 303 305 307 305 302 295 299 293 290 293 295 295 294 292 290 293 297 294 294 295 297 300 301 301 302 304 307 308
304 304 304 304 304 306 304 301 298 298 292 302 300 300 304 305 299 302 304 300 299 294 298 295 291 296 298 297 295 293 290 290 293 295 295 294 294 299 301 302 303 302 303 305 308
302 303 303 304 304 302 300 299 303 303 293 297 301 302 303 304 300 300 301 299 297 295 296 293 296 299 297 295 293 293 290 290 290 294 296 295 292 296 300 301 303 304 305 305 306
302 302 303 303 299 301 300 301 303 306 290 292 296 301 304 304 299 305 305 300 297 293 295 295 299 296 295 294 294 289 295 294 293 291 286 295 284 293 297 299 302 304 305 305 306
301 302 302 302 300 299 300 303 305 304 281 294 298 307 302 298 299 301 305 300 294 295 295 292 294 293 292 293 295 291 296 295 294 292 291 290 286 291 297 296 300 303 306 307 308
301 302 302 302 303 303 304 304 303 291 280 289 298 295 293 296 297 301 300 302 301 295 296 294 299 296 294 297 297 298 295 294 293 291 284 289 287 288 292 298 302 306 309 312 310
301 301 299 301 299 304 305 300 290 283 291 288 290 292 290 289 291 293 294 295 292 288 289 294 295 298 299 293 297 295 291 283 281 282 281 292 289 292 300 303 304 305 309 312 313
301 300 302 302 305 306 302 293 281 286 287 291 289 289 286 289 290 290 290 289 293 292 289 286 284 294 298 295 292 292 291 284 277 279 282 290 286 293 303 306 307 307 307 309 309
300 300 302 304 305 304 295 285 284 287 288 286 287 285 286 289 289 289 289 288 291 292 287 287 287 296 297 298 296 292 288 293 287 288 283 287 291 300 301 302 303 303 303 303 304
296 298 297 303 305 300 291 285 286 289 288 287 282 285 282 286 286 286 286 290 292 297 298 293 286 293 295 298 298 294 296 288 287 279 278 285 288 289 293 296 299 299 300 301 301
296 293 299 303 304 296 287 286 286 289 288 285 284 283 284 283 284 283 283 287 290 292 293 293 290 290 294 292 291 292 291 291 291 288 281 280 285 293 294 297 297 299 299 297 296
297 291 300 303 292 292 288 287 285 287 289 287 287 285 284 284 283 283 283 286 291 291 285 291 288 285 289 295 298 295 292 293 286 284 288 287 287 299 299 300 299 298 298 296 294
292 292 298 300 288 287 287 286 288 287 287 287 286 287 288 285 281 284 286 291 291 289 287 290 286 280 284 290 294 291 293 294 294 292 285 282 286 299 300 301 300 298 297 294 293
293 288 292 294 293 289 285 285 284 289 288 288 287 288 286 284 287 284 285 289 291 291 292 291 285 282 279 284 288 287 291 293 292 287 287 287 289 294 298 300 301 297 294 292 290
294 290 292 287 287 289 288 286 284 283 288 289 286 286 285 281 283 283 286 287 290 292 290 289 281 284 286 288 288 287 288 289 288 290 287 289 289 295 299 301 298 297 294 291 289
289 291 292 290 289 287 284 284 283 285 284 285 284 286 286 283 284 282 285 286 285 288 288 289 282 284 282 286 287 286 289 290 290 290 290 291 290 299 300 301 298 295 293 290 288
295 296 293 288 287 286 286 285 284 286 287 288 286 285 284 286 288 290 290 289 288 285 285 285 282 281 278 285 285 283 288 289 290 292 292 288 294 297 293 292 292 291 290 288 287
Wind_Speed
6 6 5 7 9 10 11 12 13 14 16 16 16 16 17 18 19 19 21 13 1 6 3 11 16 12 15 18 20 19 16 19 25 25 23 23 21 16 11 18 15 15 9 6 10
7 8 7 8 8 10 12 14 14 15 16 16 17 17 17 17 19 20 8 5 8 3 7 14 14 14 14 14 17 19 18 25 23 23 22 23 22 15 16 16 15 15 9 11 8
7 7 9 9 10 11 12 14 15 16 17 17 16 16 16 17 13 2 6 5 4 6 11 14 16 16 19 18 19 22 24 22 24 24 24 23 20 16 19 17 15 13 15 15 11
8 8 9 11 12 13 14 14 17 17 18 17 16 15 16 9 7 6 10 7 6 8 11 14 14 16 18 19 21 26 26 26 24 24 24 23 24 17 21 22 19 17 14 12 13
9 9 10 12 14 14 15 16 17 18 18 17 15 13 10 9 12 11 7 8 8 9 13 14 13 14 17 18 20 24 23 25 21 23 24 22 23 22 26 20 21 20 18 15 12
8 9 11 11 13 15 17 17 17 18 19 19 15 9 7 13 4 9 5 10 12 12 14 14 12 13 16 17 18 19 21 21 18 21 22 22 25 22 23 21 24 23 22 20 17
8 7 9 11 14 16 18 18 18 18 20 19 13 9 11 21 8 7 7 10 12 13 14 13 11 13 10 13 16 18 21 20 22 22 25 23 28 26 23 23 25 24 21 21 21
8 7 9 12 14 17 19 19 18 18 16 12 9 10 9 7 5 10 11 12 13 13 12 13 13 12 15 14 19 19 19 18 18 23 25 24 25 24 22 21 22 24 19 19 20
7 7 9 13 14 17 19 19 18 13 10 6 7 13 8 3 8 10 9 12 14 14 12 9 9 13 14 14 16 15 18 21 23 24 20 13 21 20 18 16 14 13 12 16 18
6 6 10 13 15 18 19 19 8 6 8 11 8 7 9 7 1 6 5 6 7 6 8 9 7 11 14 14 15 15 17 18 19 14 14 17 20 20 18 19 19 17 16 12 12
5 7 10 13 16 19 14 4 7 8 14 10 4 14 13 6 11 12 13 8 9 11 12 15 11 15 18 19 20 17 19 20 22 20 19 20 22 22 22 20 19 19 19 14 15
5 8 11 13 16 19 10 6 7 5 9 20 14 10 9 4 5 6 10 7 14 15 16 14 15 17 16 17 15 16 19 20 19 21 20 22 24 22 20 23 22 19 18 18 12
5 7 9 13 15 9 3 6 6 7 7 9 10 6 1 3 4 2 8 14 15 16 16 17 17 11 8 13 15 17 18 18 22 20 20 21 26 24 23 27 26 21 17 17 14
5 7 9 14 5 1 2 5 6 3 5 11 8 6 7 5 5 2 3 10 13 16 17 14 17 17 16 18 14 18 17 19 17 17 14 17 17 21 21 18 13 18 20 17 17
5 8 10 6 8 3 6 6 4 4 5 14 11 6 4 6 6 9 2 6 13 11 7 12 11 12 14 15 16 18 17 15 13 16 19 20 15 16 21 20 18 10 11 11 15
5 9 12 5 6 7 8 6 4 4 6 5 8 6 7 16 8 8 6 6 9 12 14 18 15 16 13 13 15 9 13 16 15 14 14 22 17 18 15 8 13 13 14 13 2
6 8 9 7 3 5 4 4 5 7 8 8 3 2 3 8 13 10 10 13 9 11 14 17 19 19 17 11 12 10 12 9 11 10 14 14 10 17 12 4 4 9 17 15 18
8 9 5 5 5 5 4 5 7 3 9 5 2 7 12 14 15 10 17 13 16 17 16 16 16 16 18 14 10 14 13 9 9 7 12 5 8 2 13 16 21 21 18 17 18
10 4 5 4 4 4 4 5 7 10 6 7 9 12 13 12 3 5 12 15 16 19 17 12 17 9 2 9 10 10 12 14 18 17 15 11 16 7 23 18 18 16 16 16 19
4 4 2 1 2 4 5 4 3 6 6 4 4 4 7 11 10 7 11 11 17 18 20 11 15 19 15 12 14 15 7 5 4 5 9 8 6 7 12 14 11 12 12 13 15
4 3 4 2 4 5 4 3 3 7 5 4 5 8 8 9 10 12 8 18 12 12 14 13 8 13 23 10 15 14 14 12 5 8 3 4 3 1 4 4 8 9 9 8 10
4 2 2 4 4 3 2 4 2 4 1 1 3 4 4 6 9 10 13 12 17 21 15 8 5 14 20 20 22 20 15 16 9 7 6 9 2 7 7 5 3 7 10 8 9
4 3 1 4 2 4 3 4 2 1 3 1 2 1 7 6 5 6 10 10 13 16 12 1 6 9 15 16 16 8 11 21 18 3 9 6 4 8 8 5 8 8 11 9 9
3 1 3 5 2 3 4 4 5 2 3 3 4 3 5 5 9 8 16 6 7 14 5 6 10 11 15 10 14 14 18 17 12 7 5 7 9 11 10 6 10 10 10 10 10
2 3 3 2 3 5 4 3 3 1 4 7 2 4 6 7 11 15 12 13 13 14 12 12 16 18 21 24 16 16 22 10 18 16 9 9 9 15 12 7 14 11 10 10 11
1 4 3 5 5 5 2 5 3 5 2 4 2 10 11 10 14 15 14 14 16 13 11 11 13 17 20 20 19 25 21 6 9 11 8 19 3 14 14 11 12 11 10 10 12
1 5 5 6 6 5 7 4 2 1 4 8 8 9 11 14 16 16 16 18 20 19 16 11 5 8 15 15 14 13 18 10 11 21 11 4 8 13 13 14 13 11 11 11 10
Wind_Direction
272 281 287 300 307 308 308 306 309 312 314 314 314 312 310 309 304 282 263 242 160 87 264 267 239 207 230 248 240 232 249 253 254 260 273 275 268 259 230 262 250 263 248 261 103
271 283 289 296 299 302 303 305 309 311 310 312 312 311 310 314 300 278 260 139 142 134 248 232 227 208 212 224 238 232 243 243 252 268 281 289 298 307 276 264 255 257 276 216 158
253 279 294 293 294 297 297 301 306 308 307 307 310 312 310 310 294 108 101 146 171 199 237 233 247 230 228 225 230 234 245 256 261 278 292 299 299 295 295 267 266 229 234 265 192
261 270 284 291 294 298 300 301 305 305 302 306 309 311 311 294 287 94 136 142 187 226 235 247 237 239 249 246 244 246 242 249 260 265 278 293 301 274 275 283 282 283 283 241 248
262 280 284 289 295 297 299 301 302 302 300 301 301 307 302 240 253 120 159 188 196 205 232 235 227 231 244 252 256 261 264 264 267 272 269 283 276 275 273 274 278 281 275 263 253
255 281 289 294 298 301 301 300 302 302 299 294 288 289 252 254 262 144 217 229 243 203 238 246 247 242 261 266 259 269 281 282 278 286 283 272 267 265 262 267 266 265 265 261 241
250 274 291 300 303 302 301 302 301 298 293 288 272 228 252 247 289 298 212 254 261 248 258 251 262 275 277 269 261 277 281 281 278 272 269 265 264 259 268 262 260 256 255 246 251
247 272 293 304 305 303 305 302 296 292 287 277 236 219 258 288 281 286 252 248 242 262 265 279 293 278 275 286 284 273 269 271 266 263 254 238 256 262 260 256 247 242 237 249 241
240 279 300 304 306 305 304 299 295 281 262 232 206 231 266 131 240 222 230 238 229 220 229 257 257 261 260 248 260 247 260 264 275 282 289 246 267 276 272 284 282 294 268 233 236
252 284 303 307 308 304 302 289 303 235 227 208 247 241 264 247 59 322 278 252 247 221 222 226 243 236 230 244 242 257 262 270 278 266 298 284 281 289 288 292 287 287 278 271 269
269 300 303 309 309 307 316 253 198 198 228 232 222 236 289 308 308 251 252 207 245 251 223 205 222 232 232 230 246 269 280 286 289 297 304 286 276 274 275 265 260 259 264 252 262
275 298 308 311 314 311 290 267 45 2 296 232 250 257 259 300 277 205 236 209 227 235 224 239 220 249 255 263 262 267 276 276 279 284 270 272 272 270 261 261 251 245 244 244 243
282 305 317 318 324 300 15 20 350 348 255 195 209 230 97 199 314 36 202 223 255 228 247 247 248 223 264 267 269 259 263 276 282 282 282 290 278 274 270 247 250 246 243 239 245
309 317 323 324 301 276 250 355 357 283 263 161 191 191 180 220 256 197 219 247 231 251 266 267 263 261 270 266 250 268 274 274 291 284 279 293 301 288 284 295 248 224 228 230 234
319 315 315 316 313 258 27 350 322 241 263 160 132 115 196 228 322 160 160 225 260 252 213 253 272 244 254 262 275 277 285 289 284 283 287 278 271 279 284 271 247 213 218 203 209
316 313 319 236 225 24 359 307 251 215 231 132 137 178 242 208 242 141 203 221 277 264 264 258 260 266 247 277 278 265 281 269 270 262 267 261 264 267 270 8 333 41 39 20 260
315 313 297 310 13 345 311 246 241 250 166 135 139 178 278 276 280 251 244 216 234 242 251 252 232 236 236 240 253 244 267 259 265 250 247 11 332 253 110 317 37 39 41 27 16
317 302 222 305 345 328 268 225 252 347 72 45 331 296 273 280 273 281 271 257 271 257 265 267 275 248 187 216 243 220 232 243 273 287 313 308 269 343 134 63 43 36 30 20 8
315 235 242 92 318 319 256 229 6 6 9 2 313 258 258 239 173 313 284 284 283 286 290 310 272 48 156 215 231 242 242 240 265 279 278 253 226 29 358 39 38 29 22 4 2
293 222 133 48 304 259 237 272 65 40 354 346 296 320 308 325 335 330 310 326 347 10 355 325 308 282 217 224 227 243 255 247 327 266 266 266 290 49 25 7 29 39 30 11 348
263 230 96 318 259 226 233 103 95 70 3 338 338 313 322 313 306 303 294 308 324 343 335 328 310 283 292 197 220 212 230 245 239 252 280 297 311 100 15 320 342 25 40 28 356
275 237 49 305 223 199 217 31 349 65 113 42 295 296 287 330 304 302 296 294 322 319 303 4 302 287 272 268 206 248 234 229 227 250 286 284 298 231 225 218 35 39 50 40 27
259 82 181 265 207 185 95 110 19 139 38 20 294 341 341 312 311 314 316 331 330 311 324 11 280 295 270 260 250 219 239 233 215 272 231 273 287 224 247 252 105 62 57 45 32
324 168 165 218 3 50 149 154 136 57 52 325 323 288 317 337 308 323 309 324 319 295 70 334 260 258 279 298 312 298 296 296 299 208 255 256 337 284 228 225 110 79 68 53 37
27 276 355 172 142 108 154 239 155 250 195 246 82 245 264 296 314 296 323 324 319 310 285 215 261 271 270 289 290 275 279 289 303 283 228 261 253 30 11 88 83 85 71 55 46
110 291 198 107 86 162 84 221 249 132 269 105 266 287 289 299 296 313 312 301 307 299 305 346 272 265 269 277 282 306 247 218 302 298 353 255 162 62 15 94 82 78 68 61 55
278 268 275 114 170 213 177 193 247 330 272 265 282 315 314 303 304 309 302 288 275 278 281 274 273 310 264 280 301 281 247 238 216 213 239 14 57 65 61 49 33 67 64 60 53